Hourly Weather Dzial

Today, 6 May, Thursday

Time Temperature Precipitation Wind Pressure Humidity
00:00 +1°C° 0.1 mm 4 mps 697 mmHg 90%
01:00 +1°C° 0.1 mm 4 mps 698 mmHg 89%
02:00 +2°C° 0 mm 3 mps 698 mmHg 88%
03:00 +1°C° 0 mm 3 mps 699 mmHg 88%
04:00 +1°C° 0 mm 3 mps 699 mmHg 87%
05:00 +2°C° 0 mm 3 mps 700 mmHg 81%
06:00 +3°C° 0 mm 3 mps 700 mmHg 75%
07:00 +4°C° 0 mm 3 mps 701 mmHg 69%
08:00 +5°C° 0 mm 3 mps 701 mmHg 61%
09:00 +7°C° 0 mm 3 mps 701 mmHg 52%
10:00 +9°C° 0 mm 3 mps 701 mmHg 44%
11:00 +9°C° 0 mm 3 mps 701 mmHg 43%
12:00 +10°C° 0 mm 4 mps 701 mmHg 42%
13:00 +10°C° 0 mm 4 mps 701 mmHg 41%
14:00 +10°C° 0 mm 4 mps 700 mmHg 45%
15:00 +10°C° 0 mm 4 mps 700 mmHg 49%
16:00 +10°C° 0 mm 4 mps 699 mmHg 52%
17:00 +9°C° 0 mm 3 mps 699 mmHg 61%
18:00 +7°C° 0 mm 3 mps 699 mmHg 69%
19:00 +5°C° 0 mm 3 mps 699 mmHg 78%
20:00 +5°C° 0 mm 3 mps 699 mmHg 80%
21:00 +6°C° 0 mm 2 mps 699 mmHg 82%
22:00 +6°C° 0 mm 2 mps 699 mmHg 84%
23:00 +5°C° 0 mm 2 mps 699 mmHg 84%

Tomorrow, 7 May, Friday

Time Temperature Precipitation Wind Pressure Humidity
00:00 +5°C° 0 mm 2 mps 698 mmHg 85%
01:00 +5°C° 0 mm 2 mps 698 mmHg 85%
02:00 +5°C° 0 mm 2 mps 698 mmHg 86%
03:00 +5°C° 0 mm 2 mps 698 mmHg 86%
04:00 +5°C° 0 mm 2 mps 698 mmHg 87%
05:00 +7°C° 0 mm 3 mps 698 mmHg 82%
06:00 +8°C° 0 mm 3 mps 699 mmHg 77%
07:00 +9°C° 0 mm 3 mps 699 mmHg 73%
08:00 +10°C° 0 mm 4 mps 699 mmHg 71%
09:00 +10°C° 0 mm 4 mps 699 mmHg 70%
10:00 +11°C° 0 mm 4 mps 699 mmHg 68%
11:00 +10°C° 0.4 mm 4 mps 700 mmHg 75%
12:00 +9°C° 0.4 mm 3 mps 700 mmHg 81%
13:00 +8°C° 0.4 mm 3 mps 701 mmHg 88%
14:00 +8°C° 0.2 mm 3 mps 701 mmHg 89%
15:00 +8°C° 0.2 mm 3 mps 701 mmHg 89%
16:00 +7°C° 0.2 mm 2 mps 702 mmHg 90%
17:00 +7°C° 0.1 mm 2 mps 702 mmHg 92%
18:00 +7°C° 0.1 mm 1 mps 703 mmHg 94%
19:00 +6°C° 0.1 mm 1 mps 703 mmHg 95%
20:00 +5°C° 0 mm 1 mps 703 mmHg 96%
21:00 +5°C° 0 mm 1 mps 703 mmHg 96%
22:00 +4°C° 0 mm 1 mps 703 mmHg 96%
23:00 +4°C° 0 mm 1 mps 704 mmHg 95%

Day after tomorrow, 8 May, Saturday

Time Temperature Precipitation Wind Pressure Humidity
00:00 +4°C° 0 mm 1 mps 704 mmHg 95%
01:00 +3°C° 0 mm 1 mps 704 mmHg 94%
02:00 +4°C° 0 mm 1 mps 703 mmHg 94%
03:00 +4°C° 0 mm 1 mps 703 mmHg 93%
04:00 +3°C° 0 mm 2 mps 703 mmHg 92%
05:00 +4°C° 0 mm 2 mps 702 mmHg 89%
06:00 +6°C° 0 mm 2 mps 702 mmHg 85%
07:00 +7°C° 0 mm 2 mps 702 mmHg 82%
08:00 +10°C° 0 mm 3 mps 702 mmHg 73%
09:00 +13°C° 0 mm 3 mps 702 mmHg 65%
10:00 +15°C° 0 mm 4 mps 701 mmHg 56%
11:00 +17°C° 0 mm 4 mps 701 mmHg 56%
12:00 +18°C° 0 mm 4 mps 701 mmHg 56%
13:00 +18°C° 0 mm 4 mps 701 mmHg 57%
14:00 +18°C° 0 mm 4 mps 701 mmHg 58%
15:00 +18°C° 0 mm 4 mps 701 mmHg 60%
16:00 +18°C° 0 mm 4 mps 701 mmHg 62%
17:00 +16°C° 0 mm 3 mps 700 mmHg 71%
18:00 +13°C° 0 mm 3 mps 700 mmHg 80%
19:00 +12°C° 0 mm 2 mps 699 mmHg 90%
20:00 +12°C° 0 mm 2 mps 699 mmHg 91%
21:00 +12°C° 0 mm 2 mps 699 mmHg 92%
22:00 +10°C° 0 mm 2 mps 699 mmHg 92%
23:00 +11°C° 0 mm 3 mps 698 mmHg 91%

9 May, Sunday

Time Temperature Precipitation Wind Pressure Humidity
00:00 +11°C° 0 mm 3 mps 698 mmHg 90%
01:00 +12°C° 0 mm 3 mps 697 mmHg 89%

10 May, Monday

Time Temperature Precipitation Wind Pressure Humidity

11 May, Tuesday

Time Temperature Precipitation Wind Pressure Humidity
Show more